CW2927 Weather Reports


time (UTC)temp
C
wind
direction
speed
KPH
gust
KPH
rain 1hr
cm
rain 24hr
cm
rain mn
cm
humidity
%
barometer
mb
20260903020705 17 138 8.0 19.3 0.08 0.10 0.10 89 1012.8
20260903014705 18 130 9.7 16.1 0.03 0.05 0.05 86 1012.8
20260903012205 18 114 6.4 14.5 0.03 0.03 0.03 84 1012.9
20260903010705 18 147 6.4 12.9 0.03 0.03 0.03 84 1013.0
20260903010205 18 147 4.8 14.5 0.03 0.03 0.03 84 1012.9
20260903004704 18 139 4.8 16.1 0.03 0.03 0.03 83 1012.9
20260903004207 19 155 4.8 19.3 0.03 0.03 0.03 82 1012.9
20260903002705 20 163 6.4 14.5 0.00 0.00 0.00 80 1012.9
20260903000704 20 163 6.4 12.9 0.00 0.00 0.00 78 1012.5
20260903000204 20 140 4.8 25.7 0.00 0.00 0.00 78 1012.4
20260902234704 20 120 6.4 14.5 0.00 0.00 0.00 75 1012.3
20260902234205 20 144 8.0 19.3 0.00 0.00 0.00 75 1012.3
20260902232704 20 125 8.0 22.5 0.00 0.00 0.00 74 1012.5
20260902232204 20 141 4.8 16.1 0.00 0.00 0.00 74 1012.5
20260902230705 21 91 4.8 14.5 0.00 0.00 0.00 74 1012.7
20260902230205 21 112 8.0 27.4 0.00 0.00 0.00 73 1012.8
20260902224705 21 115 4.8 14.5 0.00 0.00 0.00 73 1012.9
20260902224205 21 132 4.8 14.5 0.00 0.00 0.00 73 1013.0
20260902222704 21 100 4.8 12.9 0.00 0.00 0.00 72 1013.5
20260902222205 21 126 3.2 19.3 0.00 0.00 0.00 72 1013.5
20260902220704 21 105 6.4 14.5 0.00 0.00 0.00 71 1013.6
20260902220205 21 107 4.8 12.9 0.00 0.00 0.00 72 1013.8
20260902214705 22 129 3.2 11.3 0.00 0.00 0.00 71 1014.1
20260902214205 22 119 6.4 14.5 0.00 0.00 0.00 71 1014.1
20260902212705 22 145 4.8 11.3 0.00 0.00 0.00 71 1014.3
20260902212204 22 145 6.4 11.3 0.00 0.00 0.00 71 1014.3
20260902210705 22 117 3.2 8.0 0.00 0.00 0.00 70 1014.5
20260902210204 22 108 4.8 12.9 0.00 0.00 0.00 70 1014.5
20260902204704 22 130 8.0 14.5 0.00 0.00 0.00 69 1014.5
20260902204204 22 139 3.2 16.1 0.00 0.00 0.00 70 1014.4
20260902202705 22 124 8.0 14.5 0.00 0.00 0.00 69 1014.3
20260902202205 22 107 6.4 20.9 0.00 0.00 0.00 69 1014.3
20260902200705 23 109 6.4 29.0 0.00 0.00 0.00 69 1014.9
20260902200204 23 132 9.7 27.4 0.00 0.00 0.00 68 1015.0
20260902194705 23 124 8.0 20.9 0.00 0.00 0.00 67 1015.3
20260902194204 23 156 8.0 32.2 0.00 0.00 0.00 68 1015.3
20260902192704 23 124 9.7 19.3 0.00 0.00 0.00 68 1015.0
20260902190704 23 98 4.8 11.3 0.00 0.00 0.00 70 1015.6
20260902190204 23 128 8.0 19.3 0.00 0.00 0.00 69 1015.7
20260902184704 22 115 8.0 16.1 0.00 0.00 0.00 70 1015.8
20260902184205 22 120 8.0 19.3 0.00 0.00 0.00 70 1015.9
20260902182705 23 132 8.0 16.1 0.00 0.00 0.00 70 1016.2
20260902182206 23 125 4.8 14.5 0.00 0.00 0.00 70 1016.3
20260902180704 22 101 6.4 12.9 0.00 0.00 0.00 71 1016.5
20260902180204 22 112 8.0 19.3 0.00 0.00 0.00 70 1016.5
20260902174705 22 142 4.8 14.5 0.00 0.00 0.00 70 1016.7
20260902174205 22 116 6.4 14.5 0.00 0.00 0.00 70 1016.7
20260902172704 22 133 4.8 14.5 0.00 0.00 0.00 71 1016.7
20260902172204 22 108 6.4 16.1 0.00 0.00 0.00 72 1016.6
20260902170704 22 163 4.8 12.9 0.00 0.00 0.00 72 1017.0
20260902164704 21 126 4.8 11.3 0.00 0.00 0.00 74 1017.2
20260902164205 21 145 8.0 16.1 0.00 0.00 0.00 73 1017.3
20260902162704 22 171 4.8 16.1 0.00 0.00 0.00 72 1017.4
20260902162204 22 158 8.0 19.3 0.00 0.00 0.00 72 1017.4
20260902160704 21 127 4.8 12.9 0.00 0.00 0.00 73 1017.5
20260902160204 21 105 8.0 14.5 0.00 0.00 0.00 73 1017.5
20260902154704 21 131 4.8 12.9 0.00 0.00 0.00 72 1017.6
20260902154204 22 114 4.8 16.1 0.00 0.00 0.00 71 1017.6
20260902152204 21 134 8.0 19.3 0.00 0.00 0.00 73 1017.5
20260902150704 21 117 6.4 16.1 0.00 0.00 0.00 73 1017.6
20260902144704 21 145 4.8 11.3 0.00 0.00 0.00 75 1017.6
20260902144204 21 128 4.8 16.1 0.00 0.00 0.00 74 1017.6
20260902142705 21 131 6.4 14.5 0.00 0.00 0.00 74 1017.5
20260902142204 21 135 6.4 12.9 0.00 0.00 0.00 74 1017.5
20260902140704 21 146 8.0 14.5 0.00 0.00 0.00 74 1017.5
20260902140204 21 116 6.4 12.9 0.00 0.00 0.00 73 1017.6
20260902134704 21 89 4.8 9.7 0.00 0.00 0.00 74 1017.6
20260902134204 21 173 4.8 12.9 0.00 0.00 0.00 73 1017.6
20260902132704 21 134 4.8 19.3 0.00 0.00 0.00 74 1017.4
20260902132204 21 121 4.8 14.5 0.00 0.00 0.00 75 1017.5
20260902130204 19 134 8.0 19.3 0.00 0.00 0.00 78 1017.6
20260902124705 18 112 6.4 16.1 0.00 0.00 0.00 79 1017.6
20260902124204 18 138 8.0 37.0 0.00 0.00 0.00 79 1017.6
20260902122704 18 97 6.4 16.1 0.00 0.00 0.00 81 1017.4
20260902122204 18 133 9.7 19.3 0.00 0.00 0.00 81 1017.5
20260902120704 17 83 4.8 12.9 0.00 0.00 0.00 83 1017.6
20260902120204 17 104 4.8 11.3 0.00 0.00 0.00 84 1017.7
20260902114703 17 144 3.2 11.3 0.00 0.00 0.00 84 1017.9
20260902114204 17 121 4.8 14.5 0.00 0.00 0.00 84 1018.0
20260902112704 17 144 3.2 14.5 0.00 0.00 0.00 84 1018.1
20260902112204 17 114 3.2 12.9 0.00 0.00 0.00 84 1018.2
20260902110704 16 122 4.8 11.3 0.00 0.00 0.00 85 1018.4
20260902104704 16 156 4.8 12.9 0.00 0.00 0.00 86 1018.2
20260902104204 16 124 4.8 11.3 0.00 0.00 0.00 86 1018.1
20260902102704 16 110 3.2 9.7 0.00 0.00 0.00 86 1018.0
20260902102204 16 95 3.2 8.0 0.00 0.00 0.00 86 1017.9
20260902100704 16 123 3.2 8.0 0.00 0.00 0.00 86 1017.9
20260902100204 16 121 3.2 11.3 0.00 0.00 0.00 86 1017.8
20260902092703 15 130 1.6 4.8 0.00 0.00 0.00 86 1017.8
20260902092204 15 130 3.2 8.0 0.00 0.00 0.00 86 1017.8
20260902090704 16 106 1.6 4.8 0.00 0.00 0.00 85 1017.7
20260902090204 16 104 1.6 4.8 0.00 0.00 0.00 84 1017.8
20260902084704 16 103 1.6 4.8 0.00 0.00 0.00 84 1017.7
20260902084204 16 103 3.2 11.3 0.00 0.00 0.00 84 1017.7
20260902082703 16 120 3.2 11.3 0.00 0.00 0.00 83 1017.7
20260902082204 16 100 1.6 12.9 0.00 0.00 0.00 83 1017.6
20260902080703 16 110 3.2 9.7 0.00 0.00 0.00 84 1017.5
20260902080203 16 115 4.8 12.9 0.00 0.00 0.00 84 1017.6
20260902074706 16 100 4.8 9.7 0.00 0.00 0.00 85 1017.6
20260902074205 16 109 4.8 8.0 0.00 0.00 0.00 85 1017.6
20260902072705 16 113 0.0 3.2 0.00 0.00 0.00 85 1017.5
20260902072205 16 113 1.6 9.7 0.00 0.00 0.00 85 1017.5
20260902070706 16 101 3.2 8.0 0.00 0.00 0.00 86 1017.6
20260902070205 16 121 4.8 9.7 0.00 0.00 0.00 86 1017.6
20260902064706 16 113 1.6 8.0 0.00 0.00 0.00 87 1017.7
20260902064205 16 120 3.2 4.8 0.00 0.00 0.00 87 1017.6
20260902062705 15 85 0.0 1.6 0.00 0.00 0.00 86 1017.7
20260902062205 15 85 0.0 3.2 0.00 0.00 0.00 86 1017.6
20260902060705 15 85 0.0 3.2 0.00 0.00 0.00 86 1017.6
20260902060205 15 85 1.6 4.8 0.00 0.00 0.00 85 1017.5
20260902054705 15 84 1.6 3.2 0.00 0.00 0.00 85 1017.6
20260902054206 15 84 1.6 4.8 0.00 0.00 0.00 85 1017.5
20260902052205 15 61 0.0 3.2 0.00 0.00 0.00 84 1017.5
20260902050705 15 61 1.6 4.8 0.00 0.00 0.00 83 1017.5
20260902050205 15 60 0.0 4.8 0.00 0.00 0.00 83 1017.4
20260902044705 15 57 1.6 3.2 0.00 0.00 0.00 83 1017.3
20260902044205 15 57 1.6 4.8 0.00 0.00 0.00 83 1017.3
20260902042706 15 57 1.6 3.2 0.00 0.00 0.00 83 1017.2
20260902042205 15 57 3.2 4.8 0.00 0.00 0.00 83 1017.1
20260902040705 15 56 1.6 3.2 0.00 0.00 0.00 83 1017.0
20260902040205 15 56 0.0 8.0 0.00 0.00 0.00 83 1016.9
20260902034705 15 69 3.2 4.8 0.00 0.00 0.00 82 1016.7
20260902034205 15 69 3.2 8.0 0.00 0.00 0.00 82 1016.7
20260902032705 15 71 3.2 4.8 0.00 0.00 0.00 81 1016.6
20260902032205 15 70 3.2 9.7 0.00 0.00 0.00 81 1016.6
20260902030705 15 68 4.8 8.0 0.00 0.00 0.00 80 1016.5
20260902030205 16 75 3.2 8.0 0.00 0.00 0.00 80 1016.5
20260902024705 16 53 3.2 8.0 0.00 0.00 0.00 79 1016.6
20260902024205 16 47 4.8 9.7 0.00 0.00 0.00 79 1016.5
20260902022204 16 29 4.8 8.0 0.00 0.00 0.00 79 1016.4